Time,TemperatureF,DewpointF,PressureIn,WindDirection,WindDirectionDegrees,WindSpeedMPH,WindSpeedGustMPH,Humidity,HourlyPrecipIn,Conditions,Clouds,dailyrainin,SoftwareType,DateUTC
2013-03-02 00:12:00,36.6,29.0,29.62,NW,324,3.0,-999.0,75,-99.99,,,0.00,weatherlink.com 1.10,2013-03-02 05:12:00,
2013-03-02 00:27:00,36.4,29.0,29.61,NNW,338,0.0,-999.0,75,-99.99,,,0.00,weatherlink.com 1.10,2013-03-02 05:27:00,
2013-03-02 00:42:00,36.3,29.0,29.61,North,350,1.0,-999.0,75,-99.99,,,0.00,weatherlink.com 1.10,2013-03-02 05:42:00,
2013-03-02 00:57:00,36.2,29.0,29.61,NW,325,2.0,-999.0,76,-99.99,,,0.00,weatherlink.com 1.10,2013-03-02 05:57:00,
2013-03-02 01:12:00,36.1,29.0,29.61,WNW,297,0.0,-999.0,76,-99.99,,,0.00,weatherlink.com 1.10,2013-03-02 06:12:00,
2013-03-02 01:27:00,36.1,29.0,29.61,NNW,335,2.0,-999.0,76,-99.99,,,0.00,weatherlink.com 1.10,2013-03-02 06:27:00,
2013-03-02 01:42:00,36.0,29.0,29.61,NNW,335,2.0,-999.0,76,-99.99,,,0.00,weatherlink.com 1.10,2013-03-02 06:42:00,
2013-03-02 01:57:00,35.9,29.0,29.60,NW,323,5.0,-999.0,76,-99.99,,,0.00,weatherlink.com 1.10,2013-03-02 06:57:00,
2013-03-02 02:12:00,35.8,29.0,29.60,WNW,302,5.0,-999.0,76,-99.99,,,0.00,weatherlink.com 1.10,2013-03-02 07:12:00,
2013-03-02 02:27:00,35.6,29.0,29.60,WNW,284,3.0,-999.0,77,-99.99,,,0.00,weatherlink.com 1.10,2013-03-02 07:27:00,
2013-03-02 02:42:00,35.5,29.0,29.60,North,360,4.0,-999.0,77,-99.99,,,0.00,weatherlink.com 1.10,2013-03-02 07:42:00,
2013-03-02 02:57:00,35.5,29.0,29.60,North,349,1.0,-999.0,77,-99.99,,,0.00,weatherlink.com 1.10,2013-03-02 07:57:00,
2013-03-02 03:12:00,35.4,29.0,29.60,NNW,327,0.0,-999.0,77,-99.99,,,0.00,weatherlink.com 1.10,2013-03-02 08:12:00,
2013-03-02 03:27:00,35.4,29.0,29.60,NW,306,2.0,-999.0,77,-99.99,,,0.00,weatherlink.com 1.10,2013-03-02 08:27:00,
2013-03-02 03:42:00,35.3,28.0,29.60,NNW,340,5.0,-999.0,76,-99.99,,,0.00,weatherlink.com 1.10,2013-03-02 08:42:00,
2013-03-02 03:57:00,35.3,28.0,29.60,NNW,346,0.0,-999.0,76,-99.99,,,0.00,weatherlink.com 1.10,2013-03-02 08:57:00,
2013-03-02 04:12:00,35.2,28.0,29.60,NNW,340,3.0,-999.0,76,-99.99,,,0.00,weatherlink.com 1.10,2013-03-02 09:12:00,
2013-03-02 04:29:00,35.1,28.0,29.60,NW,321,0.0,-999.0,76,-99.99,,,0.00,weatherlink.com 1.10,2013-03-02 09:29:00,
2013-03-02 04:42:00,34.8,28.0,29.60,NW,317,0.0,-999.0,76,-99.99,,,0.00,weatherlink.com 1.10,2013-03-02 09:42:00,
2013-03-02 04:57:00,34.5,28.0,29.61,NW,321,1.0,-999.0,77,-99.99,,,0.00,weatherlink.com 1.10,2013-03-02 09:57:00,
2013-03-02 05:13:00,34.1,28.0,29.61,WNW,290,0.0,-999.0,77,-99.99,,,0.00,weatherlink.com 1.10,2013-03-02 10:13:00,
2013-03-02 05:27:00,33.4,28.0,29.61,WNW,290,0.0,-999.0,79,-99.99,,,0.00,weatherlink.com 1.10,2013-03-02 10:27:00,
2013-03-02 05:43:00,32.7,28.0,29.61,WNW,290,0.0,-999.0,81,-99.99,,,0.00,weatherlink.com 1.10,2013-03-02 10:43:00,
2013-03-02 05:57:00,32.5,28.0,29.61,WNW,290,0.0,-999.0,82,-99.99,,,0.00,weatherlink.com 1.10,2013-03-02 10:57:00,
2013-03-02 06:12:00,32.2,27.0,29.61,WNW,290,0.0,-999.0,82,-99.99,,,0.00,weatherlink.com 1.10,2013-03-02 11:12:00,
2013-03-02 06:27:00,32.0,27.0,29.61,WNW,289,1.0,-999.0,82,-99.99,,,0.00,weatherlink.com 1.10,2013-03-02 11:27:00,
2013-03-02 06:42:00,32.2,27.0,29.61,NW,318,0.0,-999.0,82,-99.99,,,0.00,weatherlink.com 1.10,2013-03-02 11:42:00,
2013-03-02 06:57:00,32.7,28.0,29.61,WNW,300,0.0,-999.0,81,-99.99,,,0.00,weatherlink.com 1.10,2013-03-02 11:57:00,
2013-03-02 07:12:00,33.5,28.0,29.61,NW,317,4.0,-999.0,79,-99.99,,,0.00,weatherlink.com 1.10,2013-03-02 12:12:00,
2013-03-02 07:27:00,34.1,28.0,29.61,NW,316,0.0,-999.0,77,-99.99,,,0.00,weatherlink.com 1.10,2013-03-02 12:27:00,
2013-03-02 07:42:00,34.7,28.0,29.61,NNW,339,5.0,-999.0,75,-99.99,,,0.00,weatherlink.com 1.10,2013-03-02 12:42:00,
2013-03-02 07:57:00,35.3,28.0,29.61,NNW,327,2.0,-999.0,74,-99.99,,,0.00,weatherlink.com 1.10,2013-03-02 12:57:00,
2013-03-02 08:12:00,35.9,28.0,29.61,North,350,2.0,-999.0,72,-99.99,,,0.00,weatherlink.com 1.10,2013-03-02 13:12:00,
2013-03-02 08:27:00,36.6,28.0,29.61,NNW,340,1.0,-999.0,72,-99.99,,,0.00,weatherlink.com 1.10,2013-03-02 13:27:00,
2013-03-02 08:42:00,37.0,28.0,29.61,NW,322,0.0,-999.0,70,-99.99,,,0.00,weatherlink.com 1.10,2013-03-02 13:42:00,
2013-03-02 08:57:00,37.6,28.0,29.61,NW,309,6.0,-999.0,69,-99.99,,,0.00,weatherlink.com 1.10,2013-03-02 13:57:00,
2013-03-02 09:12:00,38.5,29.0,29.62,North,360,3.0,-999.0,68,-99.99,,,0.00,weatherlink.com 1.10,2013-03-02 14:12:00,
2013-03-02 09:27:00,39.0,28.0,29.62,WNW,296,4.0,-999.0,66,-99.99,,,0.00,weatherlink.com 1.10,2013-03-02 14:27:00,
2013-03-02 09:42:00,38.9,28.0,29.61,NW,321,4.0,-999.0,66,-99.99,,,0.00,weatherlink.com 1.10,2013-03-02 14:42:00,
2013-03-02 09:57:00,40.0,29.0,29.61,NW,325,4.0,-999.0,65,-99.99,,,0.00,weatherlink.com 1.10,2013-03-02 14:57:00,
2013-03-02 10:12:00,39.8,29.0,29.62,NNW,336,0.0,-999.0,65,-99.99,,,0.00,weatherlink.com 1.10,2013-03-02 15:12:00,
2013-03-02 10:27:00,40.7,29.0,29.61,NW,326,4.0,-999.0,64,-99.99,,,0.00,weatherlink.com 1.10,2013-03-02 15:27:00,
2013-03-02 10:43:00,40.4,29.0,29.61,NNW,331,2.0,-999.0,64,-99.99,,,0.00,weatherlink.com 1.10,2013-03-02 15:43:00,
2013-03-02 10:59:00,40.5,29.0,29.61,NNW,329,0.0,-999.0,63,-99.99,,,0.00,weatherlink.com 1.10,2013-03-02 15:59:00,
2013-03-02 11:13:00,41.4,29.0,29.60,NNW,340,0.0,-999.0,62,-99.99,,,0.00,weatherlink.com 1.10,2013-03-02 16:13:00,
2013-03-02 11:29:00,41.8,29.0,29.61,NW,317,1.0,-999.0,62,-99.99,,,0.00,weatherlink.com 1.10,2013-03-02 16:29:00,
2013-03-02 11:43:00,42.3,29.0,29.60,NW,318,0.0,-999.0,60,-99.99,,,0.00,weatherlink.com 1.10,2013-03-02 16:43:00,
2013-03-02 11:58:00,42.6,30.0,29.59,NW,309,1.0,-999.0,61,-99.99,,,0.00,weatherlink.com 1.10,2013-03-02 16:58:00,
2013-03-02 12:13:00,44.2,30.0,29.58,NW,314,0.0,-999.0,59,-99.99,,,0.00,weatherlink.com 1.10,2013-03-02 17:13:00,
2013-03-02 12:28:00,44.6,30.0,29.58,NW,320,4.0,-999.0,57,-99.99,,,0.00,weatherlink.com 1.10,2013-03-02 17:28:00,
2013-03-02 12:43:00,44.4,30.0,29.57,NE,48,2.0,-999.0,58,-99.99,,,0.00,weatherlink.com 1.10,2013-03-02 17:43:00,
2013-03-02 12:58:00,44.2,30.0,29.57,NNW,327,0.0,-999.0,57,-99.99,,,0.00,weatherlink.com 1.10,2013-03-02 17:58:00,
2013-03-02 13:13:00,43.7,30.0,29.57,NW,321,4.0,-999.0,58,-99.99,,,0.00,weatherlink.com 1.10,2013-03-02 18:13:00,
2013-03-02 13:28:00,43.4,30.0,29.57,NW,315,0.0,-999.0,59,-99.99,,,0.00,weatherlink.com 1.10,2013-03-02 18:28:00,
2013-03-02 13:43:00,43.8,30.0,29.57,NW,319,5.0,-999.0,59,-99.99,,,0.00,weatherlink.com 1.10,2013-03-02 18:43:00,
2013-03-02 13:58:00,43.9,30.0,29.57,NNE,13,2.0,-999.0,59,-99.99,,,0.00,weatherlink.com 1.10,2013-03-02 18:58:00,
2013-03-02 14:13:00,43.3,32.0,29.57,NNE,15,1.0,-999.0,64,-99.99,,,0.00,weatherlink.com 1.10,2013-03-02 19:13:00,
2013-03-02 14:28:00,41.9,31.0,29.58,ENE,74,0.0,-999.0,66,-99.99,,,0.00,weatherlink.com 1.10,2013-03-02 19:28:00,
2013-03-02 14:43:00,40.9,31.0,29.57,East,101,1.0,-999.0,68,-99.99,,,0.00,weatherlink.com 1.10,2013-03-02 19:43:00,
2013-03-02 14:58:00,40.3,31.0,29.57,East,101,0.0,-999.0,69,-99.99,,,0.00,weatherlink.com 1.10,2013-03-02 19:58:00,
2013-03-02 15:13:00,40.2,31.0,29.57,East,101,0.0,-999.0,70,-99.99,,,0.00,weatherlink.com 1.10,2013-03-02 20:13:00,
2013-03-02 15:28:00,40.4,31.0,29.57,East,101,0.0,-999.0,70,-99.99,,,0.00,weatherlink.com 1.10,2013-03-02 20:28:00,
2013-03-02 15:43:00,40.9,32.0,29.57,East,101,1.0,-999.0,70,-99.99,,,0.00,weatherlink.com 1.10,2013-03-02 20:43:00,
2013-03-02 15:58:00,41.6,32.0,29.56,SSW,212,0.0,-999.0,68,-99.99,,,0.00,weatherlink.com 1.10,2013-03-02 20:58:00,
2013-03-02 16:13:00,42.2,31.0,29.57,SSW,213,0.0,-999.0,66,-99.99,,,0.00,weatherlink.com 1.10,2013-03-02 21:13:00,
2013-03-02 16:28:00,42.3,31.0,29.57,NW,320,3.0,-999.0,65,-99.99,,,0.00,weatherlink.com 1.10,2013-03-02 21:28:00,
2013-03-02 16:43:00,42.3,31.0,29.57,WSW,250,0.0,-999.0,64,-99.99,,,0.00,weatherlink.com 1.10,2013-03-02 21:43:00,
2013-03-02 16:58:00,42.1,31.0,29.57,NW,314,0.0,-999.0,65,-99.99,,,0.00,weatherlink.com 1.10,2013-03-02 21:58:00,
2013-03-02 17:13:00,41.8,31.0,29.57,NW,325,0.0,-999.0,66,-99.99,,,0.00,weatherlink.com 1.10,2013-03-02 22:13:00,
2013-03-02 17:28:00,41.5,31.0,29.57,NW,306,0.0,-999.0,66,-99.99,,,0.00,weatherlink.com 1.10,2013-03-02 22:28:00,
2013-03-02 17:43:00,41.3,31.0,29.58,NW,306,0.0,-999.0,67,-99.99,,,0.00,weatherlink.com 1.10,2013-03-02 22:43:00,
2013-03-02 17:58:00,41.1,31.0,29.58,NW,308,0.0,-999.0,67,-99.99,,,0.00,weatherlink.com 1.10,2013-03-02 22:58:00,
2013-03-02 18:12:00,40.9,31.0,29.58,NW,309,0.0,-999.0,67,-99.99,,,0.00,weatherlink.com 1.10,2013-03-02 23:12:00,
2013-03-02 18:27:00,40.7,30.0,29.59,NW,313,0.0,-999.0,66,-99.99,,,0.00,weatherlink.com 1.10,2013-03-02 23:27:00,
2013-03-02 18:42:00,40.5,30.0,29.59,NNW,340,4.0,-999.0,66,-99.99,,,0.00,weatherlink.com 1.10,2013-03-02 23:42:00,
2013-03-02 18:57:00,40.3,30.0,29.59,NW,320,0.0,-999.0,66,-99.99,,,0.00,weatherlink.com 1.10,2013-03-02 23:57:00,
2013-03-02 19:12:00,40.1,30.0,29.59,NNW,328,4.0,-999.0,67,-99.99,,,0.00,weatherlink.com 1.10,2013-03-03 00:12:00,
2013-03-02 19:27:00,39.9,29.0,29.59,North,349,3.0,-999.0,66,-99.99,,,0.00,weatherlink.com 1.10,2013-03-03 00:27:00,
2013-03-02 19:42:00,39.8,29.0,29.60,NNW,338,0.0,-999.0,66,-99.99,,,0.00,weatherlink.com 1.10,2013-03-03 00:42:00,
2013-03-02 19:57:00,39.6,28.0,29.60,NW,309,3.0,-999.0,63,-99.99,,,0.00,weatherlink.com 1.10,2013-03-03 00:57:00,
2013-03-02 20:12:00,39.2,27.0,29.60,NNW,336,4.0,-999.0,63,-99.99,,,0.00,weatherlink.com 1.10,2013-03-03 01:12:00,
2013-03-02 20:27:00,38.9,28.0,29.60,NNW,337,0.0,-999.0,64,-99.99,,,0.00,weatherlink.com 1.10,2013-03-03 01:27:00,
2013-03-02 20:42:00,38.7,27.0,29.60,North,5,2.0,-999.0,63,-99.99,,,0.00,weatherlink.com 1.10,2013-03-03 01:42:00,
2013-03-02 20:57:00,38.4,27.0,29.60,North,5,0.0,-999.0,64,-99.99,,,0.00,weatherlink.com 1.10,2013-03-03 01:57:00,
2013-03-02 21:12:00,38.1,27.0,29.60,NNW,340,4.0,-999.0,64,-99.99,,,0.00,weatherlink.com 1.10,2013-03-03 02:12:00,
2013-03-02 21:27:00,37.8,27.0,29.60,NNW,337,4.0,-999.0,65,-99.99,,,0.00,weatherlink.com 1.10,2013-03-03 02:27:00,
2013-03-02 21:42:00,37.6,27.0,29.60,NNW,333,3.0,-999.0,66,-99.99,,,0.00,weatherlink.com 1.10,2013-03-03 02:42:00,
2013-03-02 21:57:00,37.3,27.0,29.60,NNW,331,4.0,-999.0,67,-99.99,,,0.00,weatherlink.com 1.10,2013-03-03 02:57:00,
2013-03-02 22:12:00,37.1,27.0,29.60,NW,309,0.0,-999.0,68,-99.99,,,0.00,weatherlink.com 1.10,2013-03-03 03:12:00,
2013-03-02 22:27:00,37.0,27.0,29.59,NW,320,6.0,-999.0,68,-99.99,,,0.00,weatherlink.com 1.10,2013-03-03 03:27:00,
2013-03-02 22:42:00,36.8,27.0,29.59,NNW,337,2.0,-999.0,69,-99.99,,,0.00,weatherlink.com 1.10,2013-03-03 03:42:00,
2013-03-02 22:57:00,36.5,27.0,29.59,NNW,333,0.0,-999.0,69,-99.99,,,0.00,weatherlink.com 1.10,2013-03-03 03:57:00,
2013-03-02 23:12:00,36.3,27.0,29.58,NNW,333,1.0,-999.0,70,-99.99,,,0.00,weatherlink.com 1.10,2013-03-03 04:12:00,
2013-03-02 23:27:00,36.1,27.0,29.58,NNW,332,0.0,-999.0,70,-99.99,,,0.00,weatherlink.com 1.10,2013-03-03 04:27:00,
2013-03-02 23:42:00,36.0,27.0,29.59,NW,314,8.0,-999.0,71,-99.99,,,0.00,weatherlink.com 1.10,2013-03-03 04:42:00,
2013-03-02 23:57:00,35.9,27.0,29.58,NNW,336,4.0,-999.0,71,-99.99,,,0.00,weatherlink.com 1.10,2013-03-03 04:57:00,